Powrót do katalogu

CZ-6A DEB

AktywnyPO
NORAD 61490·DEBRIS·🇨🇳 China

Wystrzelony Aug 6, 2024 z Taiyuan Satellite Launch Center

Loading…

Następne Przeloty (najbliższe 24 godziny)

TLE

ŚwieżeSource: Space-Track

Epoka: Sep 14, 2026, 00:14 UTC

1 61490U 24140AAY 26257.01018043  .00000871  00000-0  36719-3 0  9995
2 61490  88.9910 263.6901 0033901 270.7820  88.9488 14.24586560104254

Śledź CZ-6A DEB w czasie rzeczywistym z AllMySat

Download on the App Store